COSMOS 2436 (723)

Last updated on Mon Sep 21 2026 00:03:22 GMT+0000 (Coordinated Universal Time)

1 32395U 07065C 26261.99902510 -.00000007 00000+0 00000+0 0 9998 2 32395 64.3275 188.8269 0017448 359.7210 199.4072 2.13100111145725
UTC large
Height (km)
Speed (km/s)
/
Latitude / Longitude
Inclination (degrees)
Orbital Period (minutes)
Azimuth
Elevation
Range (km)
Doppler Factor

Next 0 passes for location: London (51.5072 / 0.1276)

No passes found over London.
COSMOS 2436 (723)